Mona Airport

Jump to: basic info | weather | comments

Related pages: nearby airports | nearby navaids

Basic information (top)

Location: lon 18.075300, lat -67.931000, elev 1 ft / 0 m msl
Status: small_airport

Weather (top)

Current conditions for Punta Cana International Airport 38nm (71km) NW (rec'd 2014/09/19 03:00Z):

MDPC 190300Z 11006KT 9999 SCT018 27/24 Q1015

Airport forecast for Punta Cana International Airport 38nm (71km) NW (rec'd 2014/09/18 18:06Z):

TAF MDPC 181600Z 1818/1918 14008KT 9999 FEW018 PROB30 1903/1909 TSSH FEW016CB SCT018 SCT080 
      BECMG 1903/1905 00000KT

Latest comments (top)

No comments yet for Mona Airport

More... (top)

See also NOTAMs and nearby airports and navaids, or visit the Mona Airport page at the main OurAirports website..